Weather History for Durango, CO

Change the Weather History Date:

Sunday, June 17, 2012

  Actual Average Record
Temperature  
Mean Temperature 68 °F 63 °F  
Max Temperature 89 °F 82 °F 91 °F (1986)
Min Temperature 46 °F 43 °F 32 °F (1973)
Degree Days  
Heating Degree Days 0 3  
Month to date heating degree days 25 90  
Since 1 June heating degree days 25 90  
Since 1 July heating degree days 6492 7098  
Cooling Degree Days 3 1  
Month to date cooling degree days 8 10  
Year to date cooling degree days 8 11  
Since 1 June cooling degree days 8 10  
Growing Degree Days 18 (Base 50)    
Moisture  
Dew Point 23 °F    
Average Humidity 28    
Maximum Humidity 50    
Minimum Humidity 5    
Precipitation  
Precipitation 0.00 in 0.03 in 0.16 in (1985)
Month to date precipitation T 0.25  
Year to date precipitation 2.68 5.68  
Sea Level Pressure  
Sea Level Pressure 29.90 in    
Wind  
Wind Speed 10 mph (NW)    
Max Wind Speed 26 mph    
Max Gust Speed 39 mph    
Visibility 10 miles    
Events      
T = Trace of Precipitation, MM = Missing Value Source: NWS Daily Summary

Daily Weather History Graph

Daily Weather History Graph

Search for Another Location

Airport:

Trip Planner

Search our weather history database for the weather conditions in past years. The results will help you decide how hot, cold, wet, or windy it might be!

Date:

Astronomy

Jun. 17, 2012 Rise Set
Actual Time 5:50 AM MDT 8:33 PM MDT
Civil Twilight 5:19 AM MDT 9:04 PM MDT
Nautical Twilight 4:41 AM MDT 9:43 PM MDT
Astronomical Twilight 3:57 AM MDT 10:26 PM MDT
Moon 4:20 AM MDT (6/17) 7:05 PM MDT (6/17)
Length of Visible Light 15h 44m
Length of Day
14h 42m
Waning Crescent, 3% of the Moon is Illuminated
Jun 17
Waning Crescent
Jun 19
New
Jun 26
First Quarter
Jul 3
Full
Jul 10
Last Quarter

Hourly Weather History & Observations

Time (MDT) Temp. Dew Point Humidity Pressure Visibility Wind Dir Wind Speed Gust Speed Precip Events Conditions
12:53 AM 55.0 °F 25.0 °F 31% 29.96 in 10.0 mi Calm Calm - N/A   Clear
1:53 AM 54.0 °F 26.1 °F 34% 29.98 in 10.0 mi ENE 5.8 mph - N/A   Clear
2:53 AM 55.0 °F 26.1 °F 33% 29.98 in 10.0 mi NNE 9.2 mph - N/A   Clear
3:53 AM 51.1 °F 28.0 °F 41% 29.99 in 10.0 mi Calm Calm - N/A   Clear
4:53 AM 48.0 °F 30.0 °F 50% 30.00 in 10.0 mi East 4.6 mph - N/A   Clear
5:53 AM 50.0 °F 32.0 °F 50% 30.01 in 10.0 mi East 3.5 mph - N/A   Clear
6:53 AM 55.9 °F 34.0 °F 44% 30.01 in 10.0 mi Calm Calm - N/A   Clear
7:53 AM 61.0 °F 37.9 °F 42% 30.01 in 10.0 mi Calm Calm - N/A   Clear
8:53 AM 69.1 °F 37.0 °F 31% 30.00 in 10.0 mi Variable 3.5 mph - N/A   Clear
9:53 AM 72.0 °F 37.0 °F 28% 29.99 in 10.0 mi Calm Calm - N/A   Clear
10:53 AM 75.0 °F 36.0 °F 24% 29.98 in 10.0 mi NNW 4.6 mph - N/A   Clear
11:53 AM 80.1 °F 30.9 °F 17% 29.94 in 10.0 mi WSW 6.9 mph - N/A   Clear
12:53 PM 86.0 °F 17.1 °F 8% 29.90 in 10.0 mi WNW 21.9 mph 33.4 mph N/A   Clear
1:53 PM 86.0 °F 10.9 °F 6% 29.87 in 10.0 mi WNW 18.4 mph 33.4 mph N/A   Clear
2:53 PM 87.1 °F 9.0 °F 5% 29.84 in 10.0 mi NW 21.9 mph 33.4 mph N/A   Clear
3:53 PM 88.0 °F 17.1 °F 7% 29.82 in 10.0 mi West 18.4 mph 27.6 mph N/A   Clear
4:53 PM 87.1 °F 19.0 °F 8% 29.81 in 10.0 mi West 21.9 mph 31.1 mph N/A   Clear
5:53 PM 87.1 °F 18.0 °F 8% 29.78 in 10.0 mi WNW 17.3 mph 28.8 mph N/A   Clear
6:53 PM 84.9 °F 15.1 °F 7% 29.76 in 10.0 mi WNW 17.3 mph 24.2 mph N/A   Clear
7:53 PM 82.9 °F 9.0 °F 6% 29.75 in 10.0 mi West 16.1 mph - N/A   Clear
8:53 PM 79.0 °F 10.0 °F 7% 29.74 in 10.0 mi West 15.0 mph - N/A   Clear
9:53 PM 73.9 °F 12.0 °F 9% 29.77 in 10.0 mi West 9.2 mph - N/A   Clear
10:53 PM 62.1 °F 18.0 °F 18% 29.81 in 10.0 mi ENE 4.6 mph - N/A   Clear
11:53 PM 62.1 °F 19.9 °F 20% 29.79 in 10.0 mi North 5.8 mph - N/A   Clear